Weather History for Curacao, Curacao

Change the Weather History Date:

Thursday, February 16, 2012

  Actual Average Record
Temperature  
Mean Temperature 78 °F -  
Max Temperature 83 °F 85 °F 89 °F (2007)
Min Temperature 74 °F 75 °F 73 °F (1997)
Cooling Degree Days 14    
Growing Degree Days 28 (Base 50)    
Moisture  
Dew Point 71 °F    
Average Humidity 78    
Maximum Humidity 89    
Minimum Humidity 70    
Precipitation  
Precipitation 0.08 in 0.03 in - ()
Sea Level Pressure  
Sea Level Pressure 29.97 in    
Wind  
Wind Speed 11 mph ()    
Max Wind Speed 20 mph    
Max Gust Speed -    
Visibility 7.6 miles    
Events      
Averages and records for this station are not official NWS values.
T = Trace of Precipitation, MM = Missing Value Source: Averaged Metar Reports

Daily Weather History Graph

Daily Weather History Graph

Search for Another Location

Airport:

Trip Planner

Search our weather history database for the weather conditions in past years. The results will help you decide how hot, cold, wet, or windy it might be!

Date:

Astronomy

Feb. 16, 2012 Rise Set
Actual Time 6:57 AM AST 6:42 PM AST
Civil Twilight 6:35 AM AST 7:04 PM AST
Nautical Twilight 6:10 AM AST 7:29 PM AST
Astronomical Twilight 5:45 AM AST 7:54 PM AST
Moon 2:17 AM AST (2/16) 2:03 PM AST (2/16)
Length of Visible Light 12h 28m
Length of Day
11h 45m
Waning Crescent, 29% of the Moon is Illuminated
Feb 16
Waning Crescent
Feb 21
New
Feb 29
First Quarter
Mar 8
Full
Mar 14
Last Quarter

Hourly Weather History & Observations

Time (AST) Temp. Heat Index Dew Point Humidity Pressure Visibility Wind Dir Wind Speed Gust Speed Precip Events Conditions
12:00 AM 77.0 °F - 69.8 °F 78% 29.98 in 6.2 mi East 10.4 mph - N/A   Partly Cloudy
1:00 AM 77.0 °F - 69.8 °F 78% 29.95 in 6.2 mi East 12.7 mph - N/A   Partly Cloudy
2:00 AM 77.0 °F - 69.8 °F 78% 29.95 in 6.2 mi ESE 12.7 mph - N/A   Unknown
3:00 AM 77.0 °F - 69.8 °F 78% 29.95 in 6.2 mi East 12.7 mph - N/A   Unknown
4:00 AM 77.0 °F - 69.8 °F 78% 29.92 in 6.2 mi ESE 9.2 mph - N/A   Partly Cloudy
5:00 AM 77.0 °F - 69.8 °F 78% - 6.2 mi East 15.0 mph - N/A   Partly Cloudy
6:00 AM 77.0 °F - 71.6 °F 83% 29.95 in 6.2 mi East 10.4 mph - N/A   Partly Cloudy
7:00 AM 75.2 °F - 69.8 °F 83% 29.95 in 6.2 mi ESE 8.1 mph - N/A   Partly Cloudy
8:00 AM 78 °F - 71 °F 73% 30.00 in 22 mi SE 5.8 mph - -   Partly Cloudy
8:00 AM 78.8 °F - 71.6 °F 78% 29.98 in 6.2 mi SE 5.8 mph - N/A   Scattered Clouds
9:00 AM 80.6 °F 83.9 °F 69.8 °F 70% 30.01 in 6.2 mi East 10.4 mph - N/A   Scattered Clouds
10:00 AM 78.8 °F - 75.2 °F 89% 30.04 in 6.2 mi East 9.2 mph - N/A   Scattered Clouds
11:00 AM 80.6 °F 85.4 °F 73.4 °F 79% 30.04 in 6.2 mi East 11.5 mph - N/A   Partly Cloudy
12:00 PM 82.4 °F 88.2 °F 73.4 °F 74% 30.01 in 6.2 mi East 12.7 mph - N/A   Partly Cloudy
1:00 PM 80.6 °F 84.6 °F 71.6 °F 74% 30.01 in 6.2 mi East 13.8 mph - N/A   Mostly Cloudy
2:00 PM 80 °F - 72 °F 71% 29.99 in 16 mi ENE 15.0 mph - -   Partly Cloudy
2:00 PM 80.6 °F 85.4 °F 73.4 °F 79% 29.98 in 6.2 mi ENE 15.0 mph - N/A   Mostly Cloudy
3:00 PM 82.4 °F 87.2 °F 71.6 °F 70% 29.95 in 6.2 mi ENE 12.7 mph - N/A   Scattered Clouds
4:00 PM 80.6 °F 83.9 °F 69.8 °F 70% 29.92 in 6.2 mi ENE 16.1 mph - N/A   Mostly Cloudy
5:00 PM 77 °F - 70 °F 73% 29.95 in 16 mi ENE 19.6 mph - -   Mostly Cloudy
5:00 PM 77.0 °F - 69.8 °F 78% 29.95 in 6.2 mi ENE 19.6 mph - N/A   Mostly Cloudy
6:00 PM 75.2 °F - 69.8 °F 83% 29.95 in 6.2 mi ESE 9.2 mph - N/A   Mostly Cloudy
7:00 PM 77.0 °F - 69.8 °F 78% 29.95 in 6.2 mi East 11.5 mph - N/A   Mostly Cloudy
8:00 PM 77 °F - 72 °F 79% 29.97 in 16 mi ENE 13.8 mph - -   Mostly Cloudy
8:00 PM 77.0 °F - 71.6 °F 83% 29.95 in 6.2 mi ENE 13.8 mph - N/A   Mostly Cloudy
9:00 PM 75.2 °F - 69.8 °F 83% 29.98 in 6.2 mi ENE 13.8 mph - N/A   Mostly Cloudy
10:00 PM 77.0 °F - 69.8 °F 78% 29.98 in 6.2 mi ENE 12.7 mph - N/A   Scattered Clouds
11:00 PM 77 °F - 70 °F 74% 29.99 in 16 mi East 9.2 mph - -   Mostly Cloudy
11:00 PM 77.0 °F - 69.8 °F 78% 29.98 in 6.2 mi East 9.2 mph - N/A   Mostly Cloudy